Weather History for LTCI - March, 2013

Change the Weather History Date:

Tuesday, March 26, 2013

  Actual Average Record
Temperature  
Mean Temperature 35 °F -  
Max Temperature 43 °F 53 °F 59 °F (2008)
Min Temperature 27 °F 35 °F 15 °F (2005)
Degree Days  
Heating Degree Days 30    
Moisture  
Dew Point 30 °F    
Average Humidity 76    
Maximum Humidity 93    
Minimum Humidity 57    
Precipitation  
Precipitation 0.00 in 0.07 in - ()
Sea Level Pressure  
Sea Level Pressure 30.07 in    
Wind  
Wind Speed 3 mph ()    
Max Wind Speed 9 mph    
Max Gust Speed -    
Visibility 5.6 miles    
Events      
Averages and records for this station are not official NWS values.
T = Trace of Precipitation, MM = Missing Value Source: Averaged Metar Reports

Daily Weather History Graph

Daily Weather History Graph

Search for Another Location

Airport or City:

Trip Planner

Search our weather history database for the weather conditions in past years. The results will help you decide how hot, cold, wet, or windy it might be!

Date:

Astronomy

Mar. 26, 2013 Rise Set
Actual Time 5:00 AM EET 5:24 PM EET
Civil Twilight 4:34 AM EET 5:50 PM EET
Nautical Twilight 4:03 AM EET 6:21 PM EET
Astronomical Twilight 3:31 AM EET 6:53 PM EET
Moon 4:36 PM EET (3/26) 4:04 AM EET (3/26)
Length of Visible Light 13h 16m
Length of Day
12h 23m
Waxing Gibbous, 99% of the Moon is Illuminated
Mar 26
Waxing Gibbous
Mar 27
Full
Apr 3
Last Quarter
Apr 10
New
Apr 18
First Quarter

Hourly Weather History & Observations

Time (EET) Temp. Windchill Dew Point Humidity Pressure Visibility Wind Dir Wind Speed Gust Speed Precip Events Conditions
12:50 AM 30.2 °F 26.7 °F 26.6 °F 86% 30.12 in 6.2 mi East 3.5 mph - N/A   Partly Cloudy
1:50 AM 30.2 °F 26.7 °F 26.6 °F 86% 30.12 in 6.2 mi SE 3.5 mph - N/A   Partly Cloudy
2:00 AM 31 °F - 27 °F 77%  in 7 mi SE 3.5 mph - -   Scattered Clouds
2:50 AM 30.2 °F 26.7 °F 26.6 °F 86% 30.12 in 6.2 mi NE 3.5 mph - N/A   Partly Cloudy
3:50 AM 28.4 °F - 24.8 °F 86% 30.09 in 6.2 mi Variable 2.3 mph - N/A   Partly Cloudy
4:50 AM 28.4 °F - 24.8 °F 86% 30.09 in 6.2 mi Variable 1.2 mph - N/A   Scattered Clouds
5:50 AM 30.2 °F 26.7 °F 26.6 °F 86% 30.12 in 6.2 mi SSE 3.5 mph - N/A   Mostly Cloudy
6:50 AM 35.6 °F - 30.2 °F 81% 30.12 in 6.2 mi Variable 1.2 mph - N/A   Mostly Cloudy
7:50 AM 39.2 °F 37.0 °F 30.2 °F 70% 30.12 in 6.2 mi SW 3.5 mph - N/A   Mostly Cloudy
8:00 AM 39 °F - 29 °F 57%  in 6 mi SW 3.5 mph - -   Scattered Clouds
8:50 AM 39.2 °F - 30.2 °F 70% 30.12 in 6.2 mi Variable 2.3 mph - N/A   Mostly Cloudy
9:50 AM 41.0 °F 37.1 °F 32.0 °F 70% 30.09 in 6.2 mi WNW 5.8 mph - N/A   Mostly Cloudy
10:50 AM 41.0 °F 37.1 °F 32.0 °F 70% 30.09 in 6.2 mi WNW 5.8 mph - N/A   Mostly Cloudy
11:50 AM 42.8 °F 37.5 °F 32.0 °F 66% 30.09 in 6.2 mi WSW 9.2 mph - N/A   Mostly Cloudy
12:50 PM 42.8 °F 39.3 °F 32.0 °F 66% 30.06 in 6.2 mi WNW 5.8 mph - N/A   Mostly Cloudy
1:50 PM 42.8 °F 39.3 °F 32.0 °F 66% 30.06 in 6.2 mi West 5.8 mph - N/A   Mostly Cloudy
2:00 PM 42 °F - 33 °F 61%  in 6 mi West 5.8 mph - -   Scattered Clouds
2:50 PM 42.8 °F 38.6 °F 30.2 °F 61% 30.06 in 6.2 mi West 6.9 mph - N/A   Mostly Cloudy
3:50 PM 41.0 °F - 32.0 °F 70% 30.04 in 6.2 mi Variable 2.3 mph - N/A   Mostly Cloudy
4:50 PM 41.0 °F - 30.2 °F 65% 30.04 in 5.0 mi Variable 2.3 mph - N/A   Mostly Cloudy
5:50 PM 41.0 °F - 32.0 °F 70% 30.01 in 5.0 mi SSW 2.3 mph - N/A   Mostly Cloudy
6:50 PM 39.2 °F - 32.0 °F 75% 30.01 in 5.0 mi Variable 1.2 mph - N/A   Mostly Cloudy
7:50 PM 37.4 °F - 32.0 °F 81% 30.01 in 3.7 mi Variable 2.3 mph - N/A   Mostly Cloudy
8:00 PM 37 °F - 32 °F 76%  in 4 mi ENE 2.3 mph - -   Mist
8:50 PM 39.2 °F 37.0 °F 33.8 °F 81% 30.04 in 3.7 mi WSW 3.5 mph - N/A   Mostly Cloudy
9:50 PM 35.6 °F 31.7 °F 32.0 °F 87% 30.01 in 3.7 mi ENE 4.6 mph - N/A   Mostly Cloudy
10:50 PM 33.8 °F 29.6 °F 32.0 °F 93% 30.01 in 3.7 mi NNE 4.6 mph - N/A   Mostly Cloudy
11:50 PM 35.6 °F - 32.0 °F 87% 30.01 in 3.7 mi Variable 2.3 mph - N/A   Scattered Clouds